Regional Weather Roundup
Issued by NWS

Home | Current Version | Previous Version | Graphics & Text | Print | Product List | Glossary On
Versions: 1 2 3 4 5 6 7 8 9 10 11 12 13 14 15 16 17 18 19 20 21 22 23 24 25 26 27 28 29 30 31 32 33 34 35 36 37 38 39 40 41 42 43 44 45 46 47 48 49 50
000
ASUS43 KOAX 312310
RWRNE

WEATHER ROUNDUP FOR NEBRASKA
NATIONAL WEATHER SERVICE OMAHA NE
600 PM CDT SUN AUG 31 2014

NOTES: SATELLITE DATA IS BEING USED TO AUGMENT CLOUD COVER ABOVE
       12000 FEET.
       "FAIR" INDICATES FEW OR NO CLOUDS BELOW 12,000 FEET WITH NO
       SIGNIFICANT WEATHER AND/OR OBSTRUCTIONS TO VISIBILITY.

  * THESE STATIONS DO NOT REPORT WEATHER SUCH AS RAIN...SNOW OR FOG.

NEZ001>004-019>022-054>056-010000-
NEBRASKA PANHANDLE

CITY           SKY/WX    TMP DP  RH WIND       PRES   REMARKS
SCOTTSBLUFF    SUNNY     79  44  28 W20G29    29.78F
ALLIANCE       MOSUNNY   76  44  32 W23G32    29.77R
CHADRON        PTSUNNY   67  56  67 N13       29.79R
KIMBALL        SUNNY     76  38  25 W25G31    29.85S
SIDNEY         MOSUNNY   80  42  25 NW18G28   29.83F
$$

NEZ057>060-069>072-079>082-010000-
SOUTHWEST NEBRASKA

CITY           SKY/WX    TMP DP  RH WIND       PRES   REMARKS
NORTH PLATTE   CLOUDY    70  58  65 W12       29.80F
IMPERIAL       CLOUDY    76  53  44 N8        29.82F
LEXINGTON      LGT RAIN  73  61  66 N6        29.78S
MCCOOK         PTSUNNY   75  57  53 NE10      29.78F
OGALLALA       CLOUDY    69  54  58 S7        29.78F
$$

NEZ005>010-023>029-035>040-094-010000-
NORTH CENTRAL NEBRASKA

CITY           SKY/WX    TMP DP  RH WIND       PRES   REMARKS
VALENTINE      MOSUNNY   73  58  59 CALM      29.72F
AINSWORTH      CLOUDY    70  58  66 CALM      29.72F
BROKEN BOW     CLOUDY    68  61  78 MISG      29.77F
O`NEILL        CLOUDY    71  62  72 SE5       29.72F
ORD            CLOUDY    71  60  68 E9        29.68F
THEDFORD       PTSUNNY   74  57  55 SW14      29.78R
$$

NEZ041-046>049-061>064-073>077-083>087-010000-
SOUTH CENTRAL NEBRASKA

CITY           SKY/WX    TMP DP  RH WIND       PRES   REMARKS
GRAND ISLAND   CLOUDY    75  60  59 N21G29    29.76R
AURORA         CLOUDY    73  62  69 N16G24    29.73R
HASTINGS       PTSUNNY   76  59  55 N28G35    29.74R
HEBRON         CLOUDY    76  63  62 S6        29.66R
HOLDREGE       MOSUNNY   76  57  50 N13G21    29.77S
KEARNEY *      MOSUNNY   75  57  53 NW18      29.76S
YORK           HVY RAIN  70 N/A N/A N8G26     29.74R
$$

NEZ011>018-030>034-042>045-010000-
NORTHEAST NEBRASKA

CITY           SKY/WX    TMP DP  RH WIND       PRES   REMARKS
NORFOLK        CLOUDY    68  65  90 NE6       29.75R
ALBION         PTSUNNY   69  64  84 NW12G17   29.76F
BLAIR          CLOUDY    82  73  76 E5        29.63F
FREMONT        PTSUNNY   80  71  74 E5        29.62F THUNDER
TEKAMAH        LGT RAIN  79  74  84 CALM      29.63F
WAYNE          CLOUDY    67  66  96 NW7       29.72F
$$

NEZ050>053-065>068-078-088>093-010000-
SOUTHEAST NEBRASKA

CITY           SKY/WX    TMP DP  RH WIND       PRES   REMARKS
LINCOLN        TSTM      81  75  82 NW15      29.63F
OMAHA EPPLEY   CLOUDY    83  73  72 SE15      29.63F
BEATRICE       CLOUDY    88  66  47 S15G29    29.61F HX  90
FALLS CITY     MOSUNNY   89  68  49 S14       29.67F HX  93
NEBRASKA CITY  MOSUNNY   83  68  60 S12       29.66S
PLATTSMOUTH    MOSUNNY   84  69  60 SE9       29.64S
$$

NEZ044-045-051>053-067-010000-
OMAHA AREA

CITY           SKY/WX    TMP DP  RH WIND       PRES   REMARKS
OMAHA EPPLEY   CLOUDY    83  73  72 SE15      29.63F
BLAIR          CLOUDY    82  73  76 E5        29.63F
FREMONT        PTSUNNY   80  71  74 E5        29.62F THUNDER
MILLARD        MOSUNNY   83  75  76 E5        29.60F HX  91
OFFUTT AFB     CLOUDY    82  78  88 E10       29.61F HX  92
PLATTSMOUTH    MOSUNNY   84  69  60 SE9       29.64S
WAHOO          LGT RAIN  79  73  81 E6        29.60F
$$



USA.gov is the U.S. government's official web portal to all federal, state and local government web resources and services.